Погода в Ниванкюле

Погода в Ниванкюле : погода сейчас, прогноз погоды и архив. Всё, что Вы хотите узнать о погоде в Ниванкюле!

Поиск расширенной информации на нашем сайте:

Другие новости

Новости СМИ2

Главная страница сайта

Новости сайта

03.07.2017

Напоминаем, что на нашем специализированном сайте Метеоцентр.Азия вы можете получить высокодетализированные автоматические прогнозы погоды по пунктам России, СНГ и мира в авиационном формате (включающие направление и скорость ветра, видимость, явления погоды, количество и форму облачности, нижнюю и верхнюю границу облачности).


Погода в Ниванкюле - сегодня

Время (UTC), дата Ветер
(°,м/с) 
Видим.   Явления Облачность Т
(°С)
Тd
(°С)
f(%) Тe
(°С)
Pmin
(гПа)
dP
(гПа)
Po
(мм)
O2
(г/м3)
Тmin Tmax R s Состояние
почвы
21 01.10.17 180 (Ю) 3-9  н/о    н/о 
+3.6 +1.5 86 +2  1029  -0.7  763  303           
00 02.10.17 200 (Ю) 3-7  н/о    н/о 
+3.4 +1.5 87 +2  1028.2  -0.8  763  303           
09 02.10.17 180 (Ю) 4-9{10}  н/о    н/о 
+3.5 +0.6 81 +2  1025.7  -0.5  761  303           
12 02.10.17 180 (Ю) 3-8  н/о    н/о 
+5 +0.9 75 +4  1024.8  -0.8  760  301           
15 02.10.17 180 (Ю) 3-7  н/о    н/о 
+5.6 +1.7 76 +5  1023.5  -1.3  759  300           
21 02.10.17 170 (Ю) 3-6  н/о    н/о 
+6.2 +3 80 +5  1020.9  -1.7  757  298           
00 03.10.17 170 (Ю) 3-6  н/о    н/о 
+6.3 +3.1 80 +5  1019.2  -1.7  756  297           
09 03.10.17 180 (Ю) 4-9{10}  н/о    н/о 
+6.9 +2.1 71 +6  1014.5  -1.5  753  295           
21 03.10.17 190 (Ю) 2-6  н/о    н/о 
+4 +1.5 84 +4  1008.9  -1.6  748  297           
09 04.10.17 180 (Ю) 3-7  н/о    н/о 
+5.8 +2.5 79 +5  1000.6  -1.6  742  292           
12 04.10.17 170 (Ю) 3-6  н/о    н/о 
+5.8 +2.1 77 +5  999.4  -1.3  741  292           
15 04.10.17 180 (Ю) 2-5  н/о    н/о 
+5.2 +1.9 79 +5  998.1  -1.2  740  292           
21 04.10.17 тихо ()   н/о    н/о 
+5.2 +2.8 84 +5  996.1  -1  739  292           
00 05.10.17 тихо ()   н/о    н/о 
+5.6 +3.1 84 +6  995.3  -0.7  738  291           
09 05.10.17 170 (Ю) 2-4  н/о    н/о 
+7.2 +3.2 76 +7  993.7  737  289           
12 05.10.17 010 (С) 1-2  н/о    н/о 
+6.5 +5.3 92 +7  993.9  0.1  737  289           
15 05.10.17 тихо ()   н/о    н/о 
+6 +5.1 94 +6  994.1  0.2  737  290           
21 05.10.17 тихо ()   н/о    н/о 
+5.9 +5.1 95 +6  995.3  0.8  738  290           
00 06.10.17 340 (С) 1-1  н/о    н/о 
+5.5 +5 97 +6  995.9  0.6  739  291           
09 06.10.17 070 (В) 1-2  н/о    н/о 
+6.9 +6.2 95 +8  997.8  0.6  740  290           
12 06.10.17 020 (С) 1-2  н/о    н/о 
+7.2 +6 92 +8  998.2  0.4  741  290           
15 06.10.17 010 (С) 1-2  н/о    н/о 
+6.3 +5.5 95 +7  998.5  0.2  741  291           
09 17.10.17 360 (С) 1-3  н/о    н/о 
+3.2 +2.3 94 +4  996  2.3  739  294           
12 17.10.17 350 (С) 2-5  н/о    н/о 
+4 +2.7 91 +4  996.8  0.8  739  293           
15 17.10.17 330 (СЗ) 1-2  н/о    н/о 
+3.8 +2.5 91 +5  997.3  0.5  740  294           
Время (UTC), дата Ветер
(°,м/с) 
Видим.   Явления Облачность Т
(°С)
Тd
(°С)
f(%) Тe
(°С)
Pmin
(гПа)
dP
(гПа)
Po
(мм)
O2
(г/м3)
Тmin Tmax R s Состояние
почвы

Для получения пояснительной информации подведите курсор к названию столбца.

ПОГОДА в Ниванкюле - архив

Всё, что Вы хотите узнать о погоде в Ниванкюле - удобно и подробно!

Выберите нужную дату (начиная с 1 января 2015* года) и нажмите кнопку "Найти".
Будут отображены архивные сводки погоды по пункту Ниванкюль, начиная с указанной даты.


Отображать данные в формате CSV (для использования в таблицах Excel)


Внимание! Наш архив погоды предназначен исключительно для личного некоммерческого использования в познавательных целях. Если Вам необходимы официальные справки о состоянии погоды (для производственных, юридических, коммерческих и т.п. целей), обращайтесь в органы Росгидромета.

*Примечание: данная дата относится к архиву по метеостанциям СССР (Россия, СНГ, Балтия).
Архив по метеостанциям Зарубежной Европы и Азии (кроме Китая) хранится 10 дней, по другим регионам земного шара (Китай, Африка, Америка, Австралия, Океания) - 1 день.

Ниванкюль - район местоположения метеостанции


Название, широта, долгота, высота метеостанции:
Ниванкюль 68.4°ш. 30.8°д. 91 м над ур. моря [Российская Федерация]

Дополнительная информация

В oтличие oт бoльшинства пoгoдных сайтoв мы публикуем пoдрoбную метеoинфoрмацию в детальнoм прoфессиoнальнoм фoрмате.

Характеристики температуры и влажнoсти вoздуха измеряются на высoте 2 м в тени вдали oт зданий и деревьев.
Скoрoсть ветра измеряется на высoте 10 м (на урoвне рoста челoвека скoрoсть ветра ниже в 1.5-2 раза). Если метеoстанция нахoдится в гoрoде или в лесу, тo скoрoсть ветра занижена на 2-4 м/с пo сравнению с oткрытым местoм. Скoрoсть ветра над акватoриями крупных рек и oзёр, а также на вершинах хoлмoв на 2-5 м/с выше, чем в oбычных услoвиях.
Атмoсфернoе давление в разных тoчках местнoсти мoжет значительнo oтличаться oт давления на метеoстанции, в зависимoсти oт услoвий рельефа (при пoдъёме на 10 м давление пoнижается примернo на 1 мм рт.ст.).